Location: La Vergne
(36.0160°N, 86.5820°W)
Time: 20:31:38
(UTC-05:00)

Daily predictions for brighter satellites

Satellite Brightness Start Highest point End
(mag) Time Altitude Azimuth Time Altitude Azimuth Time Altitude Azimuth
SL-8 R/B 3.8 18:53:30 10° SW 18:58:14 65° SE 19:02:59 10° ENE
Okean 3 Rocket 3.6 18:53:47 10° N 18:58:22 83° E 19:02:53 10° S
Timation 1 Rocket 4.4 18:53:52 10° NNW 18:59:48 62° ENE 19:05:41 10° SE
SL-16 R/B 2.8 18:55:00 10° SSW 19:00:38 65° WNW 19:06:18 10° NNE
Cosmos 2056 Rocket 3.7 18:55:56 10° NNW 19:01:23 83° WSW 19:06:47 10° SSE
SAR-Lupe-4 3.9 18:58:37 10° SSE 19:02:01 45° ENE 19:05:27 10° N
Cosmos 1766 3.3 18:59:20 10° S 19:03:18 88° E 19:07:18 10° N
Resurs 01 Rocket 2.7 19:01:32 10° SE 19:05:10 25° ENE 19:08:49 10° NNE
Atlas Centaur 2 4.1 19:01:00 10° W 19:08:43 39° SSW 19:16:17 10° SE
Cosmos 1378 3.0 19:05:24 10° N 19:09:08 80° E 19:12:51 10° S
USA 215 3.4 19:09:58 10° NE 19:16:22 54° SE 19:22:42 10° SSW
FREGAT/IRIS 2.8 19:19:02 10° SSE 19:22:02 52° ENE 19:25:03 10° N
COSMO-SKYMED 1 4.0 19:17:58 10° N 19:22:05 43° WNW 19:26:11 10° SW
Meteor 1-28 Rocket 3.1 19:20:20 10° NNE 19:24:03 89° ESE 19:27:46 10° SSW
Abrixas 3.1 19:21:14 10° WSW 19:24:10 53° NNW 19:26:59 11° NE
Nadezhda 4 Rocket 4.4 19:19:27 10° N 19:25:18 40° ENE 19:31:03 10° SSE
Helios 1B rocket 2.7 19:21:32 10° NNE 19:25:29 45° E 19:29:26 10° S
OAO 1 Rocket 4.5 19:20:28 10° W 19:25:51 82° S 19:29:57 18° E
H-2A R/B 4.4 19:28:07 16° ENE 19:28:17 16° ENE 19:30:46 10° NNE
Cosmos 1805 3.1 19:26:34 10° S 19:30:29 81° E 19:34:26 10° N
CZ-4B DEB 4.4 19:31:56 18° ENE 19:31:56 18° ENE 19:33:53 10° NNE
SeaSat 1 4.1 19:34:29 14° SE 19:34:29 14° SE 19:35:53 10° SE
GPS 2-04 Rocket1 2.5 19:31:30 10° WSW 19:34:55 60° SSE 19:36:40 26° E
Cosmos 1346 3.5 19:32:08 10° N 19:34:56 37° ENE 19:36:08 25° SE
Gbstr 26 Del rocket 3.2 19:31:26 10° SSW 19:35:35 56° SE 19:39:48 14° ENE
Cosmos 1953 2.4 19:34:01 10° S 19:38:00 79° W 19:41:59 10° N
Cosmos 1943 Rocket 4.1 19:37:51 10° NE 19:39:17 11° NE 19:39:37 11° NE
NOAA 12 4.2 19:35:07 10° S 19:40:22 81° WSW 19:45:41 10° NNW
Cosmos 1766 Rocket 3.6 19:36:07 10° N 19:40:30 80° W 19:44:49 10° S
Cosmos 1076 Rocket 4.0 19:36:13 10° NNW 19:40:31 63° W 19:44:49 10° S
Cosmos 1943 3.5 19:36:51 10° S 19:42:05 41° ESE 19:47:20 10° NE
Meteor 1-29 2.9 19:39:43 10° NNE 19:43:11 61° E 19:46:38 10° S
Cosmos 2369 Rocket 3.2 19:38:51 10° N 19:43:38 27° ENE 19:45:20 23° E
ATLAS CENTAUR R/B 4.4 19:42:00 10° W 19:43:43 12° WSW 19:45:23 10° SW
Cosmos-2242 3.2 19:41:53 10° SSW 19:46:14 75° W 19:50:38 10° N
Cosmos 1634 Rocket 4.4 19:41:35 10° SSE 19:47:14 38° E 19:52:53 10° NNE
Cosmos 1603 4.0 19:42:33 10° SSW 19:48:15 71° WNW 19:54:01 10° NNE
Cosmos 1733 3.5 19:49:24 10° SSE 19:53:04 42° E 19:56:44 10° NNE
SEDSat Delta rocket 4.4 19:47:39 10° W 19:54:05 56° S 19:57:50 26° ESE
Cosmos 1470 2.7 19:51:11 10° S 19:54:59 57° E 19:58:48 10° NNE
OAO 3 Rocket 3.2 19:50:39 10° W 19:55:23 72° S 19:57:20 35° ESE
Cosmos 1452 Rocket 4.1 19:52:32 10° NNW 19:57:42 59° WSW 20:02:50 10° S
Cosmos 1674 2.6 20:01:45 10° N 20:05:37 67° E 20:06:20 53° SE
ASTEX 1 3.2 20:00:59 10° N 20:05:52 68° E 20:10:43 10° S
Cosmos 1842 Rocket 3.4 20:06:13 10° S 20:10:32 87° W 20:14:54 10° N
ASTRO E2 4.0 20:08:23 10° WSW 20:11:52 28° SSW 20:12:23 27° S
Cosmos 1500 Rocket 3.4 20:08:40 10° N 20:13:08 79° E 20:14:49 38° SSE
CENTAUR R/B 2.4 20:11:25 10° SSW 20:17:21 86° WNW 20:24:04 10° NNE
Cosmos 1420 Rocket 4.2 20:12:34 10° NNW 20:17:52 73° WSW 20:21:43 19° S
ATLAS 5 CENTAUR R/B 4.4 20:16:16 10° W 20:19:45 19° NW 20:23:25 10° N
FengYun 1-2 T 4.4 20:14:54 10° S 20:20:23 69° WSW 20:25:52 10° NNW
Meteor 1-16 Rocket 4.1 20:22:42 54° ENE 20:22:42 54° ENE 20:27:31 10° NNE
ALOS 2.2 20:20:32 30° S 20:22:52 81° WSW 20:27:33 10° NNW
Helios 1A 4.2 20:21:18 10° S 20:25:16 41° W 20:29:16 10° NNW
ISS -1.3 20:24:23 10° W 20:27:06 24° NNW 20:27:25 23° NNW
Meteosat 1 Rocket2 4.4 20:25:32 10° WSW 20:31:31 35° S 20:31:33 35° S
Cosmos 1627 Rocket 4.3 20:30:32 10° N 20:36:45 70° E 20:37:43 60° SE
Resurs 01 Rocket 3.8 20:37:51 10° SSW 20:41:31 25° W 20:45:13 10° NW
USA 215 4.3 20:53:09 10° NNE 20:59:11 41° NW 21:05:12 10° WSW
Cosmos 2279 Rocket 4.3 21:09:41 60° NNW 21:09:41 60° NNW 21:14:45 10° N
Cosmos 1943 Rocket 3.6 21:18:18 10° NNW 21:21:09 31° NNW 21:21:09 31° NNW
CZ-3A R/B 4.4 20:37:54 10° SSW 21:25:32 78° SE 21:27:52 59° ENE
Cosmos 2369 Rocket 3.4 21:22:31 10° NW 21:27:10 37° W 21:27:10 37° W
